Location: Brno
(49.2000°N, 16.6330°E)
Time: 11:42:23
(UTC+02:00)

CARTOSAT-1 - Visible Passes

Search period start: 31 July 2016 00:00
Search period end: 10 August 2016 00:00
Orbit: 616 x 620 km, 97.9° (Epoch: 30 July)

Date Brightness Start Highest point End Pass type
(mag) Time Alt. Az. Time Alt. Az. Time Alt. Az.
31 Jul 4.4 22:01:11 17° SE 22:03:59 37° ENE 22:07:59 10° N visible
31 Jul 5.2 23:38:19 19° SW 23:40:10 26° W 23:43:48 10° NW visible
01 Aug 3.8 22:18:14 23° SE 22:20:42 54° ENE 22:24:56 10° N visible
01 Aug 5.7 23:55:22 15° WSW 23:57:06 18° W 00:00:06 10° NW visible
02 Aug 3.5 22:35:17 29° SSE 22:37:27 79° ENE 22:41:48 10° NNW visible
03 Aug 6.0 00:12:25 10° WSW 00:14:06 12° W 00:15:58 10° WNW visible
03 Aug 5.5 21:16:06 10° E 21:18:41 16° ENE 21:21:17 10° NNE visible
03 Aug 3.7 22:52:19 32° S 22:54:15 72° WSW 22:58:35 10° NNW visible
04 Aug 5.2 21:32:15 11° ESE 21:35:18 21° ENE 21:38:35 10° NNE visible
04 Aug 4.2 23:09:23 31° SSW 23:11:05 48° W 23:15:18 10° NNW visible
05 Aug 4.7 21:49:18 16° ESE 21:51:57 29° ENE 21:55:43 10° N visible
05 Aug 4.8 23:26:26 26° SW 23:27:58 33° W 23:31:54 10° NNW visible
06 Aug 4.2 22:06:22 22° SE 22:08:39 41° ENE 22:12:44 10° N visible
06 Aug 5.3 23:43:30 20° WSW 23:44:53 23° W 23:48:23 10° NW visible
07 Aug 3.7 22:23:25 30° SE 22:25:23 60° ENE 22:29:40 10° N visible
08 Aug 5.7 00:00:34 15° WSW 00:01:51 16° W 00:04:36 10° NW visible
08 Aug 5.7 21:04:54 10° E 21:06:45 13° ENE 21:08:36 10° NNE visible
08 Aug 3.5 22:40:30 37° SSE 22:42:10 87° ENE 22:46:31 10° NNW visible
09 Aug 6.1 00:17:38 10° WSW 00:18:52 11° W 00:20:12 10° WNW visible
09 Aug 5.4 21:20:32 10° E 21:23:21 17° ENE 21:26:10 10° NNE visible
09 Aug 3.8 22:57:33 40° SSW 22:58:58 64° WSW 23:03:17 10° NNW visible
